Wetbulb
60.87 61.08 61.21 61.56 61.76 62.14 62.19 62.51 62.35 62.34 62.14 62.54 62.89 62.28 62.78 63.45 63.60 61.97 58.29 61.92 61.93 63.79 62.77 59.70 59.43 58.29 57.58 55.15 54.75 52.15 42.77 39.54 42.29 43.60 44.74 48.47 46.48 50.70 52.29 50.71 53.15 56.24 55.67 59.40 63.63
60.36 60.69 60.45 60.92 61.36 61.55 61.81 62.13 62.15 62.00 62.07 62.09 62.53 62.18 62.59 63.05 60.95 58.47 63.96 65.23 64.36 63.64 59.43 57.25 55.41 56.47 52.09 52.65 52.34 47.66 41.86 43.65 47.29 46.31 44.89 47.98 48.09 48.54 47.88 48.49 49.48 53.36 59.71 62.58 62.82
59.42 59.64 60.08 60.09 60.63 61.20 61.15 61.33 61.71 61.78 61.77 61.62 61.95 61.89 62.08 62.13 56.17 55.30 65.16 66.13 64.56 62.73 60.21 59.08 57.72 55.29 50.42 51.12 50.12 48.34 44.03 48.47 49.95 49.60 50.40 49.12 48.69 49.86 45.94 44.79 49.05 49.34 56.66 60.40 60.22
58.86 59.13 59.35 59.77 60.03 60.37 61.00 60.98 60.92 61.52 61.48 61.45 61.68 61.74 61.54 59.61 41.14 56.13 63.01 66.24 65.05 61.56 59.61 57.42 55.08 50.39 48.38 47.20 51.34 46.04 50.41 50.39 51.31 51.65 50.44 48.64 50.91 49.01 48.01 48.06 50.73 51.47 57.64 59.93 59.19
58.03 58.28 58.47 58.83 59.30 59.72 60.32 60.78 60.81 61.01 60.98 61.12 61.32 61.35 58.21 52.32 51.63 60.74 64.06 64.40 61.58 59.69 57.25 55.49 52.80 50.96 47.42 48.75 49.85 47.48 49.04 51.48 52.10 51.04 50.54 51.53 49.11 48.66 48.94 52.13 53.52 52.68 55.53 58.29 59.32
57.54 57.68 57.86 58.19 58.76 59.20 59.74 60.50 60.61 60.64 61.03 60.77 60.98 60.83 55.94 48.01 57.97 60.03 62.71 61.27 60.26 58.09 56.61 56.04 53.81 54.11 50.04 49.25 47.48 49.60 50.54 49.55 50.08 49.86 50.16 48.70 47.73 47.62 48.35 51.51 50.63 51.06 51.42 52.40 58.62
56.78 56.99 57.27 57.63 58.21 58.63 59.09 59.82 60.28 59.93 60.42 60.89 60.94 58.62 52.46 49.81 57.80 58.19 61.34 60.37 60.44 58.69 55.84 57.24 56.47 52.76 51.22 48.17 51.21 49.68 45.52 47.91 47.93 48.82 48.06 48.63 44.44 45.31 49.50 50.40 49.62 49.82 48.90 50.40 53.25
56.24 56.41 56.69 57.16 57.60 57.92 58.33 58.75 59.59 59.57 59.51 60.59 60.49 54.39 45.60 56.86 57.83 57.61 58.57 58.53 60.32 60.04 58.41 57.91 57.67 53.89 51.51 51.77 49.45 45.13 45.22 39.83 46.44 48.60 48.89 47.58 40.93 46.36 50.03 45.98 47.77 48.81 49.26 49.61 50.71
55.50 55.66 56.13 56.43 56.76 57.15 57.57 57.85 58.21 59.30 59.53 59.58 53.47 49.48 43.25 56.97 53.12 57.53 58.57 56.01 57.04 56.96 56.45 58.78 55.91 50.72 49.50 46.08 41.84 42.43 36.54 38.72 42.08 48.38 46.42 45.01 41.15 47.00 49.13 46.99 45.91 46.30 47.77 49.12 50.31
54.62 54.99 55.44 55.74 56.09 56.38 56.69 57.15 57.62 57.27 57.07 57.09 54.17 46.66 47.35 47.88 53.72 55.57 57.79 57.28 54.95 53.47 51.72 50.56 48.20 43.97 45.05 44.28 35.66 37.97 36.76 39.34 38.84 43.22 44.22 42.55 42.07 44.97 47.85 47.39 45.81 46.20 46.82 48.12 49.21
53.82 54.35 54.98 55.45 55.68 55.91 54.36 50.75 45.80 45.30 50.39 46.19 47.01 45.41 46.80 48.87 56.26 54.26 56.42 54.11 52.82 49.47 45.32 46.24 40.77 40.23 42.80 43.62 42.97 40.59 38.17 36.49 39.82 45.55 43.46 41.13 41.41 42.90 45.34 44.50 43.48 43.91 45.36 46.33 48.19
53.24 53.67 54.19 54.87 55.01 55.51 52.41 46.43 44.35 46.79 41.87 49.30 48.84 47.55 49.91 49.08 46.27 51.71 55.14 49.45 48.30 41.78 44.32 42.61 39.46 42.26 44.21 44.42 43.06 41.84 39.41 38.56 40.55 43.94 42.08 40.10 40.07 42.49 44.28 45.23 45.26 45.66 45.59 45.96 46.66
52.71 52.93 53.47 54.16 54.79 52.43 48.24 47.37 51.17 50.34 40.41 44.44 47.71 47.15 46.99 48.16 44.30 47.10 51.98 48.55 44.72 43.11 42.80 39.66 40.76 44.73 42.95 40.99 39.31 39.76 39.08 38.45 38.11 40.94 41.73 38.68 37.54 40.23 42.86 45.53 46.83 47.22 47.38 48.18 47.74
52.23 52.34 52.87 53.72 48.74 46.97 45.86 50.18 52.27 50.11 34.20 36.50 43.23 45.83 47.45 48.09 42.48 50.52 53.08 48.10 43.75 40.35 42.51 41.70 43.74 42.18 40.59 39.56 40.42 36.46 42.06 40.71 39.24 36.73 32.16 38.24 30.09 37.96 39.24 41.25 43.23 43.05 43.93 44.79 46.39
51.58 51.68 52.39 52.25 44.23 43.29 47.32 50.48 51.18 46.43 20.98 37.15 40.99 49.92 46.61 43.02 43.34 44.04 52.78 47.33 40.65 40.67 40.51 36.25 39.36 39.85 38.98 39.71 41.39 38.37 41.86 39.61 39.24 36.72 32.67 35.39 33.42 37.03 37.12 36.34 39.66 43.06 44.82 44.48 44.56
50.58 50.98 51.30 49.00 45.30 45.66 49.11 49.64 46.24 30.82 20.86 33.69 40.85 40.34 40.40 42.25 41.39 44.98 46.80 47.79 46.06 41.23 39.07 38.46 42.36 41.89 40.01 42.32 42.88 42.70 39.75 39.13 37.72 35.96 30.11 34.37 32.87 33.79 37.16 39.43 40.30 42.72 42.54 44.69 45.34
50.04 50.36 49.20 47.85 42.34 48.19 49.03 44.52 29.14 23.44 33.07 31.46 34.89 39.66 38.62 38.20 38.96 41.98 40.82 40.95 37.87 34.15 34.00 37.88 37.18 40.03 43.18 39.79 40.93 42.02 37.96 30.71 29.26 28.67 28.01 34.81 32.57 35.57 38.23 39.66 41.77 42.49 42.37 43.58 44.71
49.65 49.71 48.71 47.19 47.62 48.24 45.34 34.69 22.75 25.82 24.96 35.75 36.66 37.65 35.38 38.09 38.04 38.95 38.74 37.51 40.75 36.98 31.96 31.31 29.81 37.66 41.35 39.97 37.25 37.78 38.05 32.12 24.85 25.54 26.10 32.28 29.35 34.51 40.89 44.61 43.78 42.83 42.54 42.53 42.23
49.05 45.15 44.19 45.96 47.90 46.94 39.02 26.05 25.83 25.05 32.17 33.68 35.42 33.09 33.80 37.15 37.87 37.31 37.19 36.68 39.72 40.10 30.92 30.97 31.12 38.13 40.65 40.69 41.87 36.59 35.41 39.93 33.48 28.70 26.86 27.62 31.89 37.52 40.18 38.23 40.52 40.09 40.94 41.16 42.66
42.89 41.45 41.48 47.31 48.04 43.60 33.07 29.17 26.08 34.98 35.64 35.10 28.08 34.27 30.91 34.16 34.55 35.55 35.37 39.07 38.78 41.62 41.36 35.20 28.28 36.21 38.57 41.76 42.17 39.76 40.51 32.64 33.40 24.35 23.28 27.16 27.33 29.83 34.29 37.00 38.88 39.33 40.16 41.43 42.27
41.15 35.37 41.71 46.59 45.44 36.62 27.94 28.89 30.26 36.04 37.79 34.18 32.23 30.43 31.87 34.42 35.31 34.08 34.00 37.37 40.40 40.82 41.83 38.95 34.57 34.54 37.84 36.79 35.96 37.26 35.96 36.15 35.46 32.45 27.24 24.72 27.96 36.88 37.62 38.54 38.27 39.13 39.51 39.21 40.20
38.99 29.17 42.03 44.55 31.37 31.20 27.72 29.52 34.63 33.92 37.60 36.76 36.85 35.98 33.12 34.14 32.19 34.16 33.45 36.84 42.22 41.80 37.61 40.27 36.05 31.17 33.94 37.96 40.44 40.20 37.62 36.72 30.53 29.10 30.26 29.81 29.36 39.74 39.40 39.40 39.72 38.29 39.40 39.87 40.72
31.99 34.66 42.89 40.94 25.98 27.65 31.33 31.53 34.33 33.51 34.51 35.61 34.75 36.14 38.25 35.79 32.48 35.15 35.49 39.83 42.21 40.78 38.18 39.88 34.33 28.50 30.50 34.19 38.02 36.65 38.03 38.31 36.78 34.52 29.61 27.08 28.91 39.48 39.16 39.12 39.85 37.88 38.48 39.15 39.47
33.45 29.13 34.91 36.38 33.88 28.96 28.15 29.18 30.64 36.24 34.37 36.13 35.34 36.99 35.77 34.04 36.93 33.96 35.38 38.23 41.72 41.64 43.08 42.60 34.91 31.67 27.25 28.95 34.46 33.74 35.93 36.89 35.61 30.36 30.84 31.29 32.20 35.18 38.10 39.07 39.01 38.44 37.67 37.13 37.20
35.17 29.58 32.97 27.57 28.29 28.90 29.92 31.22 29.26 27.92 34.86 35.38 32.21 33.46 34.48 32.28 33.39 33.87 36.92 37.63 40.45 42.44 41.71 40.60 32.80 33.74 33.42 34.75 34.65 34.29 34.05 35.38 34.27 34.92 31.07 33.23 33.98 38.12 39.88 39.27 37.95 39.45 38.15 35.89 34.76
30.99 31.21 33.65 24.16 29.87 28.80 30.34 28.97 30.67 32.77 32.79 30.99 30.26 32.52 33.95 31.86 34.42 32.66 35.35 35.68 35.20 39.91 38.76 38.98 28.84 33.32 29.25 32.93 33.70 31.81 34.64 35.47 35.68 35.80 35.47 35.54 35.20 40.75 38.98 40.33 36.58 34.41 33.32 31.48 31.48
36.91 38.03 32.55 30.08 27.54 26.94 26.93 30.35 29.97 33.80 35.46 36.13 34.69 34.05 33.60 34.80 38.07 39.04 40.31 39.23 38.19 38.38 37.48 36.57 32.60 29.99 26.10 30.12 29.44 22.66 29.68 34.48 35.47 37.33 36.99 33.17 37.33 40.00 35.32 32.51 30.00 28.69 29.11 28.43 28.22
MSLP
1018.04 1018.28 1018.66 1018.94 1019.15 1019.42 1019.69 1019.82 1019.92 1020.08 1020.18 1020.34 1020.31 1020.31 1020.25 1020.36 1020.24 1020.29 1019.85 1019.03 1018.92 1018.88 1018.61 1018.42 1017.93 1017.87 1017.70 1017.99 1017.70 1017.75 1018.94 1019.03 1018.42 1017.66 1017.40 1016.88 1016.60 1016.04 1015.87 1016.07 1015.90 1016.10 1016.83 1017.27 1017.81
1017.77 1018.11 1018.41 1018.68 1018.84 1019.10 1019.41 1019.59 1019.77 1019.94 1020.06 1020.19 1020.24 1020.25 1020.31 1020.46 1020.56 1019.93 1019.12 1018.82 1018.75 1018.76 1018.82 1018.94 1018.73 1018.54 1018.66 1018.53 1018.17 1018.45 1019.24 1018.77 1017.99 1017.67 1017.33 1017.05 1017.03 1016.72 1016.44 1016.64 1016.54 1016.90 1017.44 1017.84 1018.20
1017.47 1017.84 1018.17 1018.46 1018.63 1018.90 1019.13 1019.35 1019.61 1019.85 1019.89 1019.99 1020.18 1020.21 1020.29 1020.49 1020.39 1018.86 1018.18 1018.53 1018.63 1018.79 1019.04 1019.07 1018.98 1019.13 1019.24 1019.00 1018.79 1018.61 1018.93 1018.65 1017.93 1017.64 1017.34 1017.30 1017.18 1017.05 1016.86 1016.96 1016.96 1017.19 1017.94 1018.17 1018.45
1017.08 1017.49 1017.92 1018.25 1018.43 1018.62 1018.78 1019.03 1019.37 1019.64 1019.73 1019.86 1020.04 1020.15 1020.26 1020.53 1020.15 1018.40 1017.89 1017.62 1018.17 1018.72 1019.17 1019.16 1019.23 1019.48 1019.55 1019.44 1018.90 1019.01 1018.68 1018.48 1018.10 1017.82 1017.52 1017.61 1017.59 1017.57 1017.33 1017.16 1016.71 1016.57 1017.03 1018.07 1018.47
1016.64 1017.11 1017.54 1017.88 1018.12 1018.30 1018.46 1018.72 1019.10 1019.31 1019.54 1019.72 1019.90 1020.14 1020.36 1020.25 1019.10 1018.23 1017.92 1018.03 1018.53 1018.86 1019.25 1019.43 1019.54 1019.55 1019.72 1019.47 1019.35 1019.11 1018.84 1018.38 1017.93 1017.89 1017.89 1017.66 1017.77 1017.93 1017.68 1017.04 1016.62 1016.64 1016.75 1017.29 1018.03
1016.20 1016.67 1017.15 1017.55 1017.84 1018.14 1018.35 1018.52 1018.73 1019.02 1019.40 1019.52 1019.74 1020.02 1020.17 1019.22 1018.34 1018.25 1018.24 1018.67 1018.73 1019.12 1019.48 1019.58 1019.41 1019.28 1019.55 1019.52 1019.58 1019.12 1018.93 1018.59 1018.24 1018.22 1017.97 1017.80 1017.79 1017.99 1017.48 1016.83 1016.81 1016.53 1016.68 1016.73 1017.02
1015.79 1016.19 1016.64 1017.08 1017.41 1017.75 1018.08 1018.28 1018.52 1018.76 1019.05 1019.25 1019.50 1019.92 1019.69 1018.43 1017.96 1018.30 1018.26 1018.58 1018.68 1019.05 1019.41 1019.36 1019.23 1019.44 1019.37 1019.55 1019.50 1019.17 1019.07 1018.77 1018.58 1018.29 1018.06 1017.90 1017.97 1017.75 1017.17 1016.92 1016.95 1016.78 1016.43 1016.38 1016.38
1015.25 1015.59 1016.14 1016.60 1016.99 1017.36 1017.79 1018.11 1018.38 1018.56 1018.65 1019.04 1019.40 1019.95 1019.00 1018.06 1018.15 1018.43 1018.33 1018.50 1018.61 1018.69 1019.05 1019.09 1019.06 1019.34 1019.53 1019.73 1019.74 1019.57 1019.45 1019.35 1018.80 1018.43 1018.13 1018.37 1017.52 1017.54 1017.04 1017.07 1016.71 1016.32 1016.21 1015.96 1015.81
1014.70 1015.10 1015.72 1016.29 1016.72 1017.13 1017.50 1017.91 1018.18 1018.37 1018.42 1018.87 1019.66 1019.82 1018.91 1017.61 1018.08 1018.31 1018.35 1018.44 1018.55 1018.70 1019.06 1018.82 1019.09 1019.45 1019.75 1020.47 1020.80 1020.43 1020.17 1019.63 1019.14 1018.33 1018.22 1018.28 1017.67 1017.14 1016.64 1016.72 1016.74 1016.33 1016.03 1015.82 1015.33
1014.23 1014.68 1015.36 1015.92 1016.34 1016.78 1017.23 1017.69 1017.90 1018.20 1018.46 1018.85 1019.06 1020.09 1018.76 1017.80 1017.64 1017.83 1017.94 1018.47 1018.94 1019.20 1019.58 1019.78 1020.02 1020.00 1020.45 1020.90 1020.50 1020.54 1020.53 1019.88 1019.22 1018.56 1017.99 1018.11 1017.68 1017.29 1016.95 1016.81 1016.60 1016.18 1015.73 1015.41 1014.99
1013.80 1014.30 1014.95 1015.54 1015.98 1016.31 1017.15 1017.89 1018.58 1018.58 1018.37 1017.63 1017.49 1017.54 1016.94 1016.85 1016.96 1017.47 1017.78 1018.56 1019.18 1019.72 1020.16 1020.40 1020.46 1019.90 1020.63 1020.73 1020.85 1020.67 1020.62 1020.21 1019.48 1018.52 1018.25 1018.17 1017.82 1017.44 1017.06 1016.71 1016.58 1016.38 1015.72 1015.12 1014.73
1013.30 1013.90 1014.54 1015.18 1015.66 1016.05 1016.69 1016.94 1016.79 1016.82 1017.48 1017.55 1017.65 1017.48 1016.82 1017.17 1017.42 1017.77 1017.82 1018.98 1019.45 1019.83 1020.39 1020.93 1019.74 1020.44 1020.72 1020.87 1020.96 1020.82 1020.76 1019.96 1019.60 1018.72 1018.53 1018.29 1018.02 1017.41 1017.01 1016.29 1016.06 1015.73 1015.18 1014.69 1014.15
1012.85 1013.46 1014.10 1014.79 1015.36 1015.95 1016.20 1016.46 1016.33 1016.75 1017.37 1017.14 1017.05 1017.30 1017.32 1017.70 1017.43 1017.38 1017.84 1018.41 1018.99 1019.71 1020.21 1020.24 1019.38 1019.93 1020.48 1020.61 1020.65 1020.66 1020.31 1020.26 1020.03 1019.42 1018.93 1018.99 1017.90 1017.16 1016.39 1015.42 1015.11 1014.82 1014.43 1014.07 1013.62
1012.20 1012.91 1013.60 1014.44 1015.72 1015.66 1015.93 1016.40 1016.79 1017.66 1017.91 1016.88 1016.61 1015.83 1016.71 1017.68 1017.18 1016.65 1017.04 1018.04 1019.06 1019.21 1020.34 1020.12 1019.49 1020.00 1020.21 1019.90 1020.41 1020.05 1019.73 1019.98 1020.11 1020.28 1019.65 1019.41 1017.71 1016.34 1015.97 1014.97 1014.42 1014.22 1013.83 1013.36 1012.98
1011.57 1012.35 1013.08 1013.65 1014.33 1015.00 1015.45 1016.00 1016.97 1018.01 1016.61 1015.41 1015.24 1015.19 1015.41 1016.31 1016.26 1016.10 1016.61 1017.84 1018.31 1019.12 1019.93 1019.08 1019.29 1019.54 1019.85 1019.27 1019.99 1019.57 1019.76 1019.87 1020.08 1020.35 1020.55 1019.33 1019.53 1015.36 1015.22 1014.72 1014.63 1014.04 1013.26 1012.88 1012.88
1010.93 1011.70 1012.54 1013.41 1013.94 1014.21 1014.82 1015.97 1017.39 1017.20 1014.49 1014.39 1014.22 1014.27 1015.35 1015.40 1016.01 1016.14 1016.77 1017.68 1018.20 1019.11 1019.39 1019.32 1019.51 1019.31 1019.10 1019.09 1019.24 1019.37 1019.65 1020.04 1020.56 1020.91 1020.54 1017.87 1019.66 1015.37 1014.46 1013.86 1014.05 1013.59 1012.80 1012.71 1013.10
1010.33 1011.06 1011.99 1012.69 1012.98 1013.94 1014.72 1016.00 1016.72 1014.60 1014.34 1014.30 1013.46 1013.69 1014.07 1014.70 1015.68 1015.86 1016.42 1016.93 1017.38 1018.48 1018.77 1019.41 1019.44 1019.33 1019.18 1019.28 1019.28 1019.47 1020.39 1020.73 1021.08 1021.01 1018.91 1018.24 1018.78 1014.50 1013.21 1013.32 1013.21 1013.15 1013.17 1013.10 1013.39
1009.83 1010.61 1011.26 1011.98 1012.70 1013.51 1014.60 1015.39 1013.87 1012.92 1013.13 1013.04 1012.93 1013.28 1013.35 1013.95 1014.63 1015.26 1015.71 1016.11 1016.83 1017.15 1017.67 1018.46 1018.88 1019.10 1019.26 1019.24 1019.24 1019.37 1019.88 1020.31 1020.01 1020.04 1019.09 1018.14 1016.92 1013.92 1013.03 1012.71 1012.55 1012.98 1013.28 1013.57 1013.94
1009.50 1010.48 1011.06 1011.64 1012.20 1012.99 1013.33 1012.84 1011.63 1011.47 1011.68 1012.40 1013.01 1013.15 1013.28 1013.46 1013.50 1014.78 1015.04 1015.14 1015.10 1015.73 1016.40 1017.51 1018.08 1018.11 1018.34 1018.69 1019.07 1019.50 1019.71 1019.92 1020.18 1020.33 1020.08 1017.77 1015.50 1013.88 1013.10 1013.19 1013.09 1013.61 1013.73 1014.03 1014.29
1009.31 1010.16 1010.56 1011.10 1011.78 1012.68 1012.69 1011.32 1011.78 1011.14 1010.68 1011.28 1011.84 1012.38 1012.11 1012.37 1013.25 1013.66 1014.03 1013.87 1014.17 1014.90 1015.39 1016.45 1017.61 1017.93 1018.60 1018.83 1018.97 1019.15 1019.28 1020.10 1020.24 1020.25 1019.50 1017.48 1015.73 1013.74 1013.21 1013.45 1013.76 1013.97 1014.15 1014.19 1014.45
1009.15 1009.84 1010.01 1010.80 1011.75 1011.85 1010.73 1011.32 1011.31 1010.63 1010.40 1011.08 1010.89 1011.76 1011.84 1011.74 1012.16 1012.49 1012.49 1012.99 1013.46 1014.13 1015.21 1015.77 1016.48 1018.07 1018.16 1017.76 1017.58 1018.79 1018.78 1019.37 1019.97 1019.99 1019.11 1018.11 1016.68 1014.02 1013.33 1013.28 1013.90 1014.19 1014.28 1014.48 1014.97
1008.55 1009.21 1009.59 1010.54 1011.26 1010.65 1010.67 1010.70 1011.02 1010.95 1010.43 1010.80 1011.30 1010.73 1010.81 1011.46 1011.35 1011.83 1011.25 1010.93 1011.73 1012.92 1014.27 1015.16 1015.82 1017.10 1017.37 1017.65 1017.51 1017.54 1017.82 1018.46 1018.88 1019.63 1019.04 1018.12 1015.93 1014.41 1013.54 1013.24 1013.80 1014.53 1014.63 1014.88 1015.85
1008.05 1008.77 1009.31 1009.46 1010.00 1010.44 1010.43 1010.58 1010.69 1010.87 1010.42 1010.51 1011.18 1010.83 1010.72 1010.56 1011.09 1011.09 1010.93 1010.64 1011.64 1012.03 1012.49 1013.81 1015.01 1016.53 1017.60 1018.17 1017.35 1017.39 1017.62 1017.66 1018.07 1018.42 1018.57 1017.87 1015.88 1014.56 1014.04 1014.04 1014.70 1014.95 1015.42 1016.42 1017.11
1007.99 1008.05 1008.63 1009.18 1009.80 1010.06 1009.87 1010.29 1010.46 1010.22 1010.65 1010.35 1010.41 1010.61 1010.46 1010.86 1010.86 1010.65 1010.39 1010.64 1010.96 1011.29 1011.85 1012.66 1014.05 1014.66 1014.84 1014.55 1015.83 1016.83 1017.04 1017.48 1017.57 1017.75 1017.15 1015.97 1015.56 1014.89 1014.63 1015.25 1015.55 1015.98 1016.99 1017.74 1018.32
1007.14 1007.24 1007.37 1008.10 1009.50 1009.88 1009.92 1009.97 1009.78 1010.01 1010.12 1010.36 1010.35 1010.37 1010.30 1010.23 1010.38 1010.52 1010.31 1010.12 1010.52 1010.88 1011.84 1012.56 1013.74 1014.70 1015.29 1014.46 1014.79 1015.27 1015.66 1016.40 1016.65 1016.19 1016.35 1015.08 1015.44 1014.72 1015.70 1016.72 1017.21 1018.10 1018.91 1019.21 1019.52
1005.87 1006.59 1007.23 1007.43 1008.02 1008.69 1009.24 1009.03 1009.39 1009.29 1009.12 1009.67 1010.19 1009.12 1009.74 1009.97 1009.32 1008.50 1009.44 1009.40 1010.31 1011.19 1011.49 1012.32 1013.26 1014.24 1015.01 1015.06 1015.24 1015.54 1015.23 1015.40 1015.41 1015.84 1015.83 1015.46 1015.52 1015.81 1016.62 1017.52 1018.39 1019.59 1020.27 1020.98 1021.08
1005.33 1005.25 1006.09 1007.33 1008.14 1008.84 1008.44 1008.48 1008.64 1009.33 1008.70 1008.19 1008.04 1008.75 1009.25 1008.68 1008.77 1008.69 1008.57 1009.01 1009.02 1010.07 1011.14 1012.14 1013.31 1014.58 1015.82 1015.88 1015.90 1015.78 1014.45 1014.86 1015.14 1015.41 1015.77 1016.37 1015.44 1016.81 1018.36 1019.53 1020.77 1021.58 1021.74 1021.91 1022.19
Wind_Speed
9 7 8 10 10 9 8 7 5 5 7 6 6 5 6 6 6 1 4 2 3 4 6 7 7 8 4 3 1 4 4 1 4 2 2 6 4 7 1 3 3 2 4 5 12
10 8 7 8 8 9 9 8 7 6 7 6 5 4 4 3 3 7 9 3 3 3 4 7 8 9 5 5 4 4 4 6 5 4 0 3 5 6 4 7 4 4 6 8 8
10 8 8 7 7 8 9 9 8 8 7 6 5 5 3 2 4 6 14 16 9 4 1 3 5 4 2 4 3 3 4 5 10 1 4 3 5 5 2 2 3 2 7 8 6
12 10 10 9 8 8 8 9 9 9 7 6 6 5 4 2 7 3 10 18 13 6 1 3 3 1 2 3 5 3 7 6 7 3 1 1 5 6 2 6 5 4 11 7 8
11 11 10 10 10 10 9 9 10 10 9 7 6 4 3 4 7 3 8 11 6 6 6 5 3 2 3 3 4 6 7 7 8 5 4 1 4 5 7 12 11 6 9 12 9
11 11 10 10 11 12 10 9 10 11 10 9 7 3 4 13 5 8 9 4 4 4 4 5 5 6 4 4 2 5 4 3 5 6 5 4 6 2 4 9 9 8 9 8 11
13 12 11 11 11 11 10 9 9 12 12 10 9 3 7 14 2 7 6 6 5 7 5 7 7 1 1 3 4 4 3 5 4 6 5 2 5 8 12 9 11 11 8 8 10
14 12 11 11 10 10 9 9 9 10 12 10 9 3 8 6 13 11 8 6 6 6 8 5 5 5 4 3 6 4 0 2 5 8 8 8 13 5 11 5 13 13 10 8 10
13 12 11 11 10 10 9 8 8 9 12 11 4 4 7 6 6 2 3 7 8 3 3 0 2 4 1 4 3 3 4 7 6 9 4 8 8 6 6 5 7 8 8 8 7
14 12 12 11 11 11 9 5 2 4 3 5 2 3 5 4 6 8 3 5 6 5 4 3 1 2 3 5 11 9 6 6 7 7 6 7 11 8 8 8 10 9 9 8 9
15 14 13 12 11 12 7 4 3 2 5 5 9 4 4 10 6 7 6 4 4 3 8 4 4 13 13 9 5 5 4 7 4 5 6 6 10 8 8 7 9 9 9 9 10
16 15 15 14 13 12 7 5 6 4 5 15 6 20 9 4 4 6 8 9 9 7 6 3 19 5 7 8 8 11 10 15 6 4 4 5 11 9 8 11 11 13 13 11 8
18 17 17 15 14 8 9 12 4 8 2 4 15 8 12 5 7 13 16 7 5 9 12 12 5 16 10 10 8 10 16 7 10 5 3 4 13 13 8 15 14 14 14 14 14
19 19 19 17 10 5 6 6 3 6 4 8 10 9 14 2 8 9 18 9 6 17 12 12 8 7 10 17 11 15 9 6 5 4 8 4 12 17 6 10 8 8 9 10 11
19 20 20 21 8 10 6 8 8 4 9 11 12 6 12 17 8 10 14 4 11 8 9 10 8 15 17 15 9 10 6 7 7 6 2 14 4 17 3 4 6 11 13 8 5
21 21 21 14 2 7 8 11 6 11 9 9 12 16 14 20 7 6 14 5 4 5 1 8 1 4 6 8 15 3 1 4 5 3 10 20 8 21 15 16 8 8 5 8 9
20 20 17 9 13 8 10 9 11 14 7 9 11 15 26 15 24 10 19 19 13 13 17 5 4 2 2 5 3 4 5 3 5 6 11 9 10 22 5 4 8 6 9 7 8
19 19 15 9 9 11 12 10 18 10 7 3 9 16 27 24 19 20 18 19 21 10 10 14 9 11 6 9 5 9 12 4 9 7 4 8 12 10 10 16 10 6 8 8 8
18 5 6 8 12 13 10 18 12 6 12 12 7 16 19 23 12 22 22 24 17 24 10 13 9 4 6 6 9 4 10 9 9 3 3 5 7 7 7 3 8 9 9 8 7
6 6 7 11 12 13 13 16 4 9 7 12 16 10 20 25 21 24 26 17 20 17 4 7 3 4 6 4 3 8 5 4 4 5 8 5 6 6 5 8 9 9 9 8 7
5 5 7 10 7 10 10 13 11 5 12 12 21 14 9 15 18 20 12 8 20 22 17 6 4 4 11 13 14 8 6 4 3 3 2 2 5 8 10 11 12 8 8 8 8
4 4 8 12 9 2 11 6 11 3 7 9 5 13 17 19 9 20 21 18 25 26 22 12 6 6 4 1 1 14 11 11 5 5 3 2 4 7 11 10 9 8 8 7 10
3 3 9 12 9 3 5 4 6 9 6 12 8 9 7 12 11 17 19 16 23 21 23 13 5 5 4 5 4 5 5 6 2 4 7 4 5 3 3 6 5 8 7 11 9
4 6 6 6 2 5 4 8 6 13 5 3 7 1 9 12 8 12 18 9 21 23 13 20 6 6 13 6 10 7 9 12 10 3 7 15 3 2 5 7 5 4 13 9 9
3 3 3 9 8 6 7 3 15 7 13 12 3 7 5 5 19 14 15 6 5 22 13 13 14 9 5 4 6 5 13 19 17 16 11 10 13 12 2 9 8 9 9 11 11
7 5 2 4 11 18 16 9 6 7 12 15 16 11 11 6 8 17 13 11 9 9 16 9 4 6 1 5 4 4 9 10 16 14 12 8 12 5 11 8 8 8 8 10 11
4 3 6 10 7 10 10 7 16 9 6 16 21 11 13 17 8 9 7 5 11 17 16 10 5 4 4 5 6 7 10 15 10 10 16 12 14 1 9 10 9 9 11 12 11
Wind_Direction
236 240 247 240 231 229 219 222 237 266 273 281 296 314 313 321 330 281 254 248 116 7 346 322 336 351 326 283 283 34 56 265 258 40 235 355 31 346 141 355 345 136 118 136 135
230 226 232 250 245 230 228 214 217 238 263 276 288 292 285 333 280 256 257 194 165 60 4 1 355 350 358 320 322 105 125 229 238 323 348 89 34 330 52 351 322 53 45 115 126
211 216 223 235 238 239 233 225 211 220 247 271 276 262 253 174 293 246 205 215 194 148 153 309 314 345 300 341 277 225 190 268 299 141 51 2 3 318 67 322 165 99 180 162 150
205 210 220 229 237 237 235 224 219 213 225 241 262 258 189 213 238 310 303 204 166 149 163 265 286 224 258 267 293 311 285 257 278 8 64 334 324 334 283 249 271 163 169 165 174
211 210 215 231 240 245 235 227 217 212 218 226 237 237 136 207 244 357 62 98 111 149 199 218 229 212 229 254 317 259 257 260 280 304 239 278 259 245 284 289 286 282 170 180 189
209 205 207 218 228 236 238 225 221 207 211 217 216 193 244 240 230 218 104 103 146 151 235 235 222 213 269 239 238 302 310 302 321 291 262 246 262 186 267 269 287 259 218 196 188
211 209 212 216 220 228 232 230 219 220 209 207 202 160 244 234 237 359 186 170 177 177 204 237 250 244 21 322 309 278 302 337 292 262 250 296 294 231 245 264 264 262 256 241 217
213 201 202 207 214 220 221 227 224 221 216 203 191 155 250 211 246 288 308 192 190 213 204 254 262 221 170 302 340 338 220 261 241 246 254 159 256 254 271 257 249 242 256 247 247
203 190 191 199 203 209 212 225 231 230 225 205 144 167 264 186 202 210 219 209 193 186 24 54 141 192 61 140 300 254 248 238 290 236 254 182 256 221 256 318 299 269 268 274 270
205 189 190 194 196 195 194 176 212 271 244 213 200 115 291 213 160 186 152 231 201 100 45 69 35 196 128 182 223 222 231 251 236 264 199 210 252 260 278 286 275 258 253 264 278
205 195 188 191 196 192 171 106 93 240 200 199 164 200 272 195 122 174 166 123 106 113 185 208 188 218 217 208 216 256 255 256 309 287 179 235 267 272 278 299 295 277 261 255 257
207 203 198 194 196 200 163 194 180 176 187 222 228 212 249 151 154 171 133 165 187 191 161 151 235 187 194 215 220 246 264 269 285 255 223 261 274 272 264 266 257 264 261 251 247
207 202 197 192 189 198 188 203 347 40 318 221 197 204 211 194 241 193 168 167 180 186 188 208 182 196 190 225 224 225 232 241 242 296 240 311 276 267 244 251 255 260 254 256 241
208 201 195 181 188 138 202 169 146 81 228 212 194 227 185 97 261 181 186 151 219 209 201 220 220 216 210 229 203 240 214 232 251 278 262 135 286 275 272 257 260 266 265 265 240
207 201 196 178 145 180 158 139 129 86 214 186 177 180 166 186 141 210 172 200 185 170 164 211 174 202 225 224 187 253 263 220 219 230 300 250 274 279 240 232 279 284 271 249 286
203 199 194 197 157 151 139 134 101 225 214 170 148 178 164 194 201 150 168 114 145 182 298 205 124 168 212 208 205 214 32 35 10 139 246 248 188 269 259 248 229 271 349 121 106
201 196 188 179 194 156 144 152 196 225 143 183 175 176 187 182 200 176 182 190 185 191 210 157 195 155 127 176 138 125 105 246 223 210 247 173 186 238 259 225 192 242 140 109 102
201 193 197 187 169 169 164 216 212 199 180 207 169 186 191 184 197 201 189 199 199 204 179 204 215 173 167 202 196 206 196 222 218 210 267 160 223 240 229 242 253 133 103 97 98
198 186 179 190 180 175 202 206 212 178 170 152 151 182 196 198 175 196 204 204 203 190 173 196 220 94 183 147 167 181 205 245 270 128 317 232 277 299 232 82 107 103 95 94 93
177 166 189 164 175 178 211 225 215 193 167 181 181 201 194 189 189 190 191 198 201 191 194 201 187 183 168 104 245 202 159 152 200 237 248 276 272 230 127 128 116 112 120 118 85
168 186 180 148 149 213 202 217 215 224 152 208 198 180 198 182 196 191 189 202 199 183 200 166 116 187 135 201 179 174 178 155 129 249 203 261 289 284 161 144 139 136 123 111 103
163 174 164 150 190 208 193 177 200 222 175 175 231 203 210 188 183 196 210 207 186 174 190 202 138 184 183 345 106 204 211 187 185 179 205 218 242 291 153 151 132 141 120 104 75
162 151 167 154 192 175 145 197 220 202 223 150 199 200 200 204 201 196 202 196 185 173 184 175 175 151 167 229 172 188 186 173 89 121 210 222 263 255 187 112 99 112 115 74 76
154 159 168 166 151 182 115 180 184 195 179 172 174 218 170 190 204 216 207 188 181 195 166 161 151 205 221 211 133 186 173 206 185 166 213 217 232 239 197 98 73 61 80 77 66
183 212 184 158 177 177 173 202 181 167 195 201 255 198 187 209 184 194 198 141 194 186 181 157 204 179 241 143 148 175 187 193 205 214 198 223 206 246 101 63 76 57 47 52 44
151 160 158 152 163 171 185 200 215 183 150 178 223 207 213 224 212 182 171 159 169 189 169 178 195 148 123 144 152 204 217 207 215 230 258 249 266 251 112 144 89 69 67 38 30
199 142 120 169 143 167 196 171 192 209 239 192 206 170 197 232 197 201 169 135 152 170 181 162 120 132 206 141 100 300 200 199 204 204 222 230 248 87 108 97 67 50 34 20 10